KC8P Weather Reports


Display with metric or nautical units.
time (UTC)temp
F
wind
direction
speed
MPH
gust
MPH
rain 1hr
in
rain 24hr
in
rain mn
in
humidity
%
barometer
mb
20260904043657 65 197 0.0 0.0 0.00 0.00 0.23 98 1015.6
20260904043551 65 197 0.0 0.0 0.00 0.00 0.23 98 1015.6
20260904043446 65 198 0.0 0.0 0.00 0.00 0.23 98 1015.9
20260904043340 65 198 0.0 0.0 0.00 0.00 0.23 98 1015.9
20260904043234 65 198 0.0 0.0 0.00 0.00 0.23 98 1015.9
20260904043129 65 198 0.0 0.0 0.00 0.00 0.23 98 1015.9
20260904043023 65 198 0.0 0.0 0.00 0.00 0.23 98 1015.9
20260904042956 65 198 0.0 0.0 0.00 0.00 0.23 98 1015.6
20260904042952 65 198 0.0 0.0 0.00 0.00 0.23 98 1015.9
20260904042944 65 198 0.0 0.0 0.00 0.00 0.23 98 1015.9
20260904042706 65 198 0.0 0.0 0.00 0.00 0.23 98 1015.6
20260904042600 65 198 0.0 0.0 0.00 0.00 0.23 98 1015.6
20260904042455 65 198 0.0 0.0 0.00 0.00 0.23 98 1015.6
20260904042349 65 198 0.0 0.0 0.00 0.00 0.23 98 1015.6
20260904042216 65 197 0.0 0.0 0.00 0.00 0.23 98 1015.9
20260904042138 65 197 0.0 0.0 0.00 0.00 0.23 98 1015.6
20260904042032 65 197 0.0 0.0 0.00 0.00 0.23 98 1015.9
20260904041926 65 197 0.0 0.0 0.00 0.00 0.23 98 1015.9
20260904041820 65 197 0.0 0.0 0.00 0.00 0.23 98 1015.9
20260904041714 65 197 0.0 0.0 0.00 0.00 0.23 98 1015.6
20260904041609 65 198 0.0 0.0 0.00 0.00 0.23 98 1015.9
20260904041503 65 202 0.0 0.0 0.00 0.00 0.23 98 1015.6
20260904041357 65 209 0.0 0.0 0.00 0.00 0.23 98 1015.6
20260904041252 65 214 0.0 0.0 0.00 0.00 0.23 98 1015.6
20260904041203 65 214 0.0 0.0 0.00 0.00 0.23 98 1015.6
20260904041148 65 214 0.0 0.0 0.00 0.00 0.23 98 1015.6
20260904041041 65 214 0.0 0.0 0.00 0.00 0.23 98 1015.6
20260904040935 65 214 0.0 0.0 0.00 0.00 0.23 98 1015.3
20260904040829 65 214 0.0 0.0 0.00 0.00 0.23 98 1015.6
20260904040723 65 213 0.0 0.0 0.00 0.00 0.23 98 1015.6
20260904040656 65 210 0.0 0.0 0.00 0.00 0.23 98 1015.6
20260904040617 65 210 0.0 0.0 0.00 0.00 0.23 98 1015.6
20260904040511 65 210 0.0 0.0 0.00 0.00 0.23 98 1015.3
20260904040405 65 210 0.0 0.0 0.00 0.00 0.23 98 1015.3
20260904040313 65 208 0.0 0.0 0.00 0.00 0.23 98 1015.3
20260904040154 65 208 0.0 0.0 0.00 0.00 0.23 98 1015.3
20260903153637 67 311 9.0 32.0 0.67 0.72 0.76 94 1017.7
20260903153530 68 343 9.0 32.0 0.59 0.64 0.69 94 1016.9
20260903153425 69 244 16.0 32.0 0.52 0.57 0.61 93 1016.9
20260903153319 70 237 0.0 21.0 0.41 0.46 0.54 93 1016.6
20260903153242 71 281 7.0 21.0 0.41 0.46 0.49 93 1016.6
20260903153214 72 341 12.0 21.0 0.28 0.33 0.45 92 1016.9
20260903153108 73 339 14.0 21.0 0.17 0.22 0.32 91 1016.9
20260903153002 76 283 12.0 21.0 0.04 0.09 0.21 89 1016.9
20260903152857 76 78 8.0 16.0 0.02 0.07 0.08 89 1017.3
20260903152750 77 261 4.0 6.0 0.02 0.07 0.06 89 1016.9
20260903152735 77 261 4.0 6.0 0.02 0.07 0.06 89 1016.6
20260903152646 77 233 3.0 4.0 0.00 0.05 0.06 89 1016.6
20260903152539 77 227 1.0 1.0 0.00 0.05 0.04 89 1015.9
20260903152434 77 225 0.0 1.0 0.00 0.05 0.04 88 1015.6
20260903152328 77 225 1.0 1.0 0.00 0.05 0.04 88 1015.6
20260903152222 77 211 0.0 1.0 0.00 0.05 0.04 88 1015.3
20260903152117 77 206 0.0 1.0 0.00 0.05 0.04 88 1015.3
20260903152011 78 206 0.0 1.0 0.00 0.05 0.04 88 1015.3
20260903151906 78 206 1.0 1.0 0.00 0.05 0.04 87 1014.9
20260903151759 78 205 1.0 1.0 0.00 0.05 0.04 87 1014.9
20260903151722 78 204 0.0 1.0 0.00 0.05 0.04 86 1014.9
20260903151653 78 195 0.0 1.0 0.00 0.05 0.04 86 1014.9
20260903151548 78 195 0.0 1.0 0.00 0.05 0.04 86 1014.9
20260903151442 78 195 0.0 1.0 0.00 0.05 0.04 86 1014.6
20260903151337 78 195 0.0 1.0 0.00 0.05 0.04 86 1014.9
20260903151230 78 195 0.0 1.0 0.00 0.05 0.04 86 1014.9
20260903151215 78 194 0.0 1.0 0.00 0.05 0.04 86 1014.9
20260903151125 78 196 0.0 1.0 0.00 0.05 0.04 86 1014.6
20260903151019 78 198 0.0 1.0 0.00 0.05 0.04 86 1014.9
20260903150914 78 185 0.0 1.0 0.00 0.05 0.04 86 1014.6
20260903150820 78 182 0.0 1.0 0.00 0.05 0.04 86 1014.2
20260903150708 78 213 0.0 1.0 0.00 0.05 0.04 86 1014.9
20260903150702 78 214 0.0 1.0 0.00 0.05 0.04 86 1014.9
20260903150609 78 214 0.0 1.0 0.00 0.05 0.04 86 1014.6
20260903150451 78 215 0.0 1.0 0.00 0.05 0.04 86 1014.6
20260903150345 78 214 0.0 2.0 0.00 0.05 0.04 86 1014.6
20260903150240 78 214 0.0 4.0 0.00 0.05 0.04 86 1014.9
20260903150202 78 214 0.0 4.0 0.00 0.05 0.04 85 1014.9
20260903150134 78 214 0.0 4.0 0.00 0.05 0.04 85 1014.2
20260903150029 78 214 0.0 4.0 0.00 0.05 0.04 85 1014.2
20260903145923 79 214 0.0 4.0 0.00 0.05 0.04 84 1014.2
20260903145817 79 195 0.0 4.0 0.00 0.05 0.04 84 1014.2
20260903145711 79 195 0.0 4.0 0.00 0.05 0.04 84 1014.2
20260903145655 79 195 0.0 4.0 0.00 0.05 0.04 84 1014.2
20260903145606 79 195 0.0 4.0 0.00 0.05 0.04 84 1014.2
20260903145459 79 188 1.0 4.0 0.00 0.05 0.04 84 1013.9
20260903145354 79 203 0.0 4.0 0.00 0.05 0.04 84 1014.2
20260903145248 79 199 2.0 3.0 0.00 0.05 0.04 84 1013.9
20260903145149 79 211 2.0 3.0 0.00 0.05 0.04 84 1013.9
20260903145142 79 183 2.0 3.0 0.00 0.05 0.04 84 1013.9
20260903145036 79 178 0.0 3.0 0.00 0.05 0.04 84 1013.9
20260903144931 80 188 2.0 3.0 0.00 0.05 0.04 82 1014.2
20260903144825 80 169 1.0 2.0 0.00 0.05 0.04 83 1014.2
20260903144719 80 173 2.0 2.0 0.00 0.05 0.04 82 1013.9
20260903144642 80 177 1.0 2.0 0.00 0.05 0.04 82 1013.9
20260903144614 80 171 1.0 2.0 0.00 0.05 0.04 82 1013.9
20260903144509 81 187 1.0 2.0 0.00 0.05 0.04 81 1013.9
20260903144418 81 133 0.0 2.0 0.00 0.05 0.04 80 1014.2
20260903144413 81 148 0.0 2.0 0.00 0.05 0.04 81 1013.9
20260903144404 81 135 0.0 2.0 0.00 0.05 0.04 80 1014.2
20260903144355 81 131 0.0 2.0 0.00 0.05 0.04 80 1014.2
20260903144046 81 134 0.0 2.0 0.00 0.05 0.04 80 1014.2
20260903143939 81 135 0.0 3.0 0.00 0.05 0.04 80 1013.9
20260903143901 82 140 0.0 3.0 0.00 0.05 0.04 77 1014.2
20260903143857 82 103 1.0 3.0 0.00 0.05 0.04 79 1014.2
20260903143848 82 138 0.0 3.0 0.00 0.05 0.04 78 1014.2
20260903143623 82 140 0.0 3.0 0.00 0.05 0.04 77 1014.2
20260903143517 82 126 0.0 3.0 0.00 0.05 0.04 77 1013.9
20260903143411 82 131 0.0 3.0 0.00 0.05 0.04 77 1013.9
20260903143306 82 121 0.0 3.0 0.00 0.05 0.04 77 1013.9
20260903143159 82 112 0.0 3.0 0.00 0.05 0.04 77 1013.9
20260903143121 82 249 0.0 3.0 0.00 0.05 0.04 77 1014.2
20260903143053 82 232 1.0 3.0 0.00 0.05 0.04 77 1014.2
20260903142947 82 288 1.0 3.0 0.00 0.05 0.04 77 1014.2
20260903142852 82 211 2.0 3.0 0.00 0.05 0.04 76 1014.2
20260903142843 83 145 1.0 3.0 0.00 0.05 0.04 76 1014.2
20260903142834 83 189 3.0 3.0 0.00 0.05 0.04 76 1014.2
20260903142524 83 227 2.0 3.0 0.00 0.05 0.04 76 1014.6
20260903142419 83 153 1.0 2.0 0.00 0.05 0.04 75 1014.2
20260903142339 83 225 1.0 2.0 0.00 0.05 0.04 76 1014.2
20260903142335 83 207 2.0 2.0 0.00 0.05 0.04 76 1014.2
20260903142327 83 231 1.0 2.0 0.00 0.05 0.04 76 1014.6
20260903142103 83 225 1.0 2.0 0.00 0.05 0.04 76 1014.2
20260903141956 83 165 0.0 2.0 0.00 0.05 0.04 75 1014.2
20260903141851 83 218 1.0 2.0 0.00 0.05 0.04 75 1014.2
20260903141745 84 255 2.0 2.0 0.00 0.05 0.04 75 1013.9
20260903141638 84 122 0.0 2.0 0.00 0.05 0.04 76 1013.9
20260903141602 84 135 0.0 2.0 0.00 0.05 0.04 76 1013.9
20260903141533 84 130 0.0 2.0 0.00 0.05 0.04 76 1014.2
20260903141428 84 206 1.0 2.0 0.00 0.05 0.04 74 1014.2
20260903141334 82 140 0.0 1.0 0.00 0.05 0.04 76 1013.9
20260903141330 84 204 0.0 1.0 0.00 0.05 0.04 76 1014.2
20260903141321 83 133 0.0 1.0 0.00 0.05 0.04 76 1014.2
20260903141312 83 148 0.0 1.0 0.00 0.05 0.04 76 1013.9
20260903141005 82 141 0.0 1.0 0.00 0.05 0.04 77 1014.2
20260903140859 82 182 0.0 1.0 0.00 0.05 0.04 77 1014.2
20260903140818 82 266 0.0 1.0 0.00 0.05 0.04 77 1014.2
20260903140814 82 158 0.0 1.0 0.00 0.05 0.04 77 1013.9
20260903140806 82 322 0.0 1.0 0.00 0.05 0.04 77 1013.9
20260903140542 82 255 0.0 1.0 0.00 0.05 0.04 77 1013.9
20260903140435 82 195 0.0 2.0 0.00 0.05 0.04 77 1013.9
20260903140330 82 191 0.0 2.0 0.00 0.05 0.04 77 1013.9
20260903140223 82 140 0.0 2.0 0.00 0.05 0.04 77 1013.9
20260903140117 82 130 0.0 2.0 0.00 0.05 0.04 77 1013.5
20260903140040 81 148 0.0 2.0 0.00 0.05 0.04 77 1013.5
20260903140012 81 166 0.0 2.0 0.00 0.05 0.04 77 1013.9
20260903135905 81 184 0.0 2.0 0.00 0.05 0.04 78 1013.5
20260903135800 81 176 0.0 2.0 0.00 0.05 0.04 78 1013.9
20260903135655 81 214 0.0 2.0 0.00 0.05 0.04 78 1013.5
20260903135533 81 184 1.0 2.0 0.00 0.05 0.04 78 1013.9
20260903135443 82 182 1.0 2.0 0.00 0.05 0.04 78 1013.9
20260903135337 82 134 0.0 2.0 0.00 0.05 0.04 79 1013.9
20260903135232 81 142 0.0 2.0 0.00 0.05 0.04 80 1013.9
20260903135127 81 136 0.0 2.0 0.00 0.05 0.04 79 1013.9
20260903135020 81 127 0.0 2.0 0.00 0.05 0.04 80 1013.9
20260903134914 81 158 0.0 2.0 0.00 0.05 0.04 80 1014.2
20260903134809 81 163 1.0 2.0 0.00 0.05 0.04 79 1014.2
20260903134703 81 178 0.0 2.0 0.00 0.05 0.04 79 1013.9
20260903134557 81 124 0.0 3.0 0.00 0.05 0.04 79 1014.2
20260903134520 81 137 0.0 3.0 0.00 0.05 0.04 80 1013.9
20260903134451 81 124 0.0 3.0 0.00 0.05 0.04 81 1013.9
20260903134346 80 127 0.0 3.0 0.00 0.05 0.04 81 1014.2
20260903134241 80 116 0.0 3.0 0.00 0.05 0.04 81 1014.2
20260903134134 80 101 0.0 3.0 0.00 0.05 0.04 83 1014.2
20260903134029 79 138 0.0 3.0 0.00 0.05 0.04 83 1014.2
20260903134013 79 135 0.0 3.0 0.00 0.05 0.04 83 1014.2
20260903133924 79 133 0.0 3.0 0.00 0.05 0.04 83 1014.2
20260903133818 79 187 1.0 3.0 0.00 0.05 0.04 83 1014.2
20260903133712 79 174 2.0 3.0 0.00 0.05 0.04 83 1014.2
20260903133606 79 148 1.0 2.0 0.00 0.05 0.04 82 1014.2
20260903133507 80 223 2.0 2.0 0.00 0.05 0.04 82 1014.2
20260903133500 80 205 1.0 2.0 0.00 0.05 0.04 81 1014.2
20260903133355 79 181 1.0 2.0 0.00 0.05 0.04 81 1014.2
20260903133249 79 169 0.0 2.0 0.00 0.05 0.04 82 1014.2
20260903133142 79 184 0.0 2.0 0.00 0.05 0.04 83 1014.2
20260903133037 78 202 1.0 2.0 0.00 0.05 0.04 83 1014.2
20260903133000 78 200 0.0 1.0 0.00 0.05 0.04 84 1014.2
20260903132932 78 193 0.0 1.0 0.00 0.05 0.04 83 1014.2
20260903132826 78 240 0.0 2.0 0.00 0.05 0.04 83 1014.2
20260903132720 78 50 0.0 2.0 0.00 0.05 0.04 83 1014.2
20260903132615 78 128 0.0 2.0 0.00 0.05 0.04 83 1014.2
20260903132508 78 218 0.0 2.0 0.00 0.05 0.04 84 1014.6
20260903132454 78 218 0.0 2.0 0.00 0.05 0.04 84 1014.6
20260903132403 78 144 0.0 2.0 0.00 0.05 0.04 83 1014.2
20260903132257 78 220 0.0 2.0 0.00 0.05 0.04 84 1014.2
20260903132152 78 127 0.0 2.0 0.00 0.05 0.04 84 1014.2
20260903132046 77 162 0.0 2.0 0.00 0.05 0.04 85 1014.2
20260903131954 77 164 1.0 2.0 0.00 0.05 0.04 84 1014.2
20260903131834 77 207 0.0 2.0 0.00 0.05 0.04 84 1014.2
20260903131729 77 243 0.0 2.0 0.00 0.05 0.04 84 1014.2
20260903131623 77 189 0.0 2.0 0.00 0.05 0.04 85 1014.2
20260903131516 77 197 0.0 2.0 0.00 0.05 0.04 86 1014.2
20260903131410 77 228 0.0 2.0 0.00 0.05 0.04 86 1014.2
20260903131305 77 306 1.0 2.0 0.00 0.05 0.04 85 1014.2
20260903131212 76 209 0.0 1.0 0.00 0.05 0.04 85 1013.9
20260903131208 77 214 0.0 2.0 0.00 0.05 0.04 85 1014.2
20260903131200 77 223 2.0 2.0 0.00 0.05 0.04 85 1014.2
20260903131151 76 209 0.0 1.0 0.00 0.05 0.04 85 1014.2
20260903130842 76 186 0.0 1.0 0.00 0.05 0.04 86 1013.9
20260903130737 76 203 0.0 0.0 0.00 0.05 0.04 85 1013.9
20260903130631 76 232 0.0 0.0 0.00 0.05 0.04 85 1013.9
20260903130538 76 183 0.0 0.0 0.00 0.05 0.04 85 1014.2
20260903130426 76 159 0.0 0.0 0.00 0.05 0.04 87 1014.2
20260903130420 76 159 0.0 0.0 0.00 0.05 0.04 86 1014.2
20260903130314 76 165 0.0 0.0 0.00 0.05 0.04 87 1014.2
20260903130207 76 171 0.0 0.0 0.00 0.05 0.04 87 1014.2
20260903130115 75 157 0.0 0.0 0.00 0.05 0.04 87 1014.2
20260903125957 75 130 0.0 0.0 0.00 0.05 0.04 87 1014.2
20260903125918 75 128 0.0 0.0 0.00 0.05 0.04 87 1014.2
20260903125851 74 201 0.0 0.0 0.00 0.05 0.04 87 1014.2
20260903125744 74 61 0.0 0.0 0.00 0.05 0.04 89 1014.2
20260903125647 74 222 0.0 0.0 0.00 0.05 0.04 89 1014.2
20260903125638 74 180 0.0 0.0 0.00 0.05 0.04 90 1014.2
20260903125630 73 245 0.0 0.0 0.00 0.05 0.04 90 1014.2
20260903125322 73 201 0.0 0.0 0.00 0.05 0.04 91 1014.6
20260903125215 73 214 0.0 0.0 0.00 0.05 0.04 92 1014.6
20260903125110 73 182 0.0 0.0 0.00 0.05 0.04 92 1014.2
20260903125005 73 163 0.0 0.0 0.00 0.05 0.04 93 1014.6
20260903124905 72 185 0.0 0.0 0.00 0.05 0.04 93 1014.6
20260903124859 72 185 0.0 0.0 0.00 0.05 0.04 93 1014.6
20260903124751 72 205 0.0 0.0 0.00 0.05 0.04 93 1014.6
20260903124646 72 193 0.0 0.0 0.00 0.05 0.04 94 1014.2
20260903124541 72 185 0.0 0.0 0.00 0.05 0.04 94 1014.2
20260903124434 72 183 0.0 0.0 0.00 0.05 0.04 95 1014.2
20260903124357 72 183 0.0 0.0 0.00 0.05 0.04 95 1014.2
20260903124328 72 183 0.0 0.0 0.00 0.05 0.04 95 1014.2
20260903124223 72 184 0.0 0.0 0.00 0.05 0.04 96 1014.2
20260903124117 72 186 0.0 0.0 0.00 0.05 0.04 96 1014.2
20260903124011 71 186 0.0 0.0 0.00 0.05 0.04 96 1014.6
20260903123905 71 206 0.0 0.0 0.00 0.05 0.04 96 1014.9
20260903123850 71 216 0.0 0.0 0.00 0.05 0.04 96 1014.9
20260903123800 71 152 0.0 0.0 0.00 0.05 0.04 96 1014.9
20260903123654 71 138 0.0 0.0 0.00 0.05 0.04 96 1014.2
20260903123549 71 149 0.0 0.0 0.00 0.05 0.04 96 1014.6
20260903123443 71 193 0.0 0.0 0.00 0.05 0.04 96 1014.6
20260903123344 71 136 0.0 0.0 0.00 0.05 0.04 96 1014.6
20260903123338 71 137 0.0 0.0 0.00 0.05 0.04 96 1014.6
20260903123232 71 110 0.0 0.0 0.00 0.05 0.04 97 1014.6
20260903123125 71 92 0.0 0.0 0.00 0.05 0.04 96 1014.6
20260903123019 71 253 0.0 0.0 0.00 0.05 0.04 96 1014.6
20260903122914 71 168 0.0 0.0 0.00 0.05 0.04 97 1014.6
20260903122836 71 169 0.0 0.0 0.00 0.05 0.04 97 1014.6
20260903122808 71 172 0.0 0.0 0.00 0.05 0.04 97 1014.6
20260903122703 71 172 0.0 0.0 0.00 0.05 0.04 97 1014.6
20260903122557 71 184 0.0 0.0 0.00 0.05 0.04 97 1014.6
20260903122452 70 160 0.0 0.0 0.00 0.05 0.04 97 1014.6
20260903122346 70 175 0.0 0.0 0.00 0.05 0.04 97 1014.6
20260903122330 70 175 0.0 0.0 0.00 0.05 0.04 97 1014.6
20260903122240 70 175 0.0 0.0 0.00 0.05 0.04 97 1014.6
20260903122147 70 175 0.0 0.0 0.00 0.05 0.04 97 1014.6
20260903122028 70 175 0.0 0.0 0.00 0.05 0.04 97 1014.2
20260903121923 70 191 0.0 0.0 0.00 0.05 0.04 97 1014.6
20260903121817 70 195 0.0 0.0 0.00 0.05 0.04 97 1014.6
20260903121707 70 186 0.0 0.0 0.00 0.05 0.04 97 1014.6
20260903121602 70 120 0.0 0.0 0.00 0.05 0.04 97 1014.6
20260903121456 70 212 0.0 0.0 0.00 0.05 0.04 97 1014.2
20260903121350 70 213 0.0 0.0 0.00 0.05 0.04 97 1014.2
20260903121325 70 213 0.0 0.0 0.00 0.05 0.04 97 1014.9
20260903121245 70 213 0.0 0.0 0.00 0.05 0.04 97 1014.9
20260903121139 70 178 0.0 0.0 0.00 0.05 0.04 97 1014.6
20260903121034 70 177 0.0 0.0 0.00 0.05 0.04 97 1014.6
20260903120929 70 205 0.0 0.0 0.00 0.05 0.04 97 1014.6
20260903120822 70 188 0.0 0.0 0.00 0.05 0.04 97 1014.6
20260903120716 70 198 0.0 0.0 0.00 0.05 0.04 97 1014.6
20260903120610 70 182 0.0 0.0 0.00 0.05 0.04 97 1014.9
20260903120504 70 187 0.0 0.0 0.00 0.05 0.04 97 1014.6
20260903120359 70 216 0.0 0.0 0.00 0.05 0.04 97 1014.6
20260903120311 70 259 0.0 0.0 0.00 0.05 0.04 97 1014.6
20260903120253 70 203 0.0 0.0 0.00 0.05 0.04 97 1014.6
20260903120154 69 195 0.0 0.0 0.00 0.05 0.04 97 1014.6
20260903120112 69 181 0.0 0.0 0.00 0.05 0.04 97 1014.6
20260903120108 69 197 0.0 0.0 0.00 0.05 0.04 97 1014.6
20260903120052 69 184 0.0 0.0 0.00 0.05 0.04 97 1014.9
20260903120031 69 212 0.0 0.0 0.00 0.05 0.04 97 1014.6
20260903115731 69 201 0.0 0.0 0.00 0.05 0.04 97 1014.6
20260903115626 69 201 0.0 0.0 0.00 0.05 0.04 97 1014.6
20260903115541 69 210 0.0 0.0 0.00 0.05 0.04 97 1014.6
20260903115533 69 209 0.0 0.0 0.00 0.05 0.04 97 1014.2
20260903115523 69 184 0.0 0.0 0.00 0.05 0.04 97 1014.6
20260903115202 69 184 0.0 0.0 0.00 0.05 0.04 97 1014.6
20260903115109 69 209 0.0 0.0 0.00 0.05 0.04 97 1014.6
20260903114951 69 201 0.0 0.0 0.00 0.05 0.04 97 1014.6
20260903114845 69 210 0.0 0.0 0.00 0.05 0.04 97 1014.6
20260903114758 69 208 0.0 0.0 0.00 0.05 0.04 97 1014.6
20260903114740 69 196 0.0 0.0 0.00 0.05 0.04 97 1014.6
20260903114634 69 193 0.0 0.0 0.00 0.05 0.04 97 1014.2
20260903114529 69 216 0.0 0.0 0.00 0.05 0.04 97 1014.6
20260903114423 69 201 0.0 0.0 0.00 0.05 0.04 97 1014.6
20260903114318 69 204 0.0 0.0 0.00 0.05 0.04 97 1014.2
20260903114250 69 210 0.0 0.0 0.00 0.05 0.04 97 1014.2
20260903114211 69 197 0.0 0.0 0.00 0.05 0.04 97 1014.6
20260903114118 69 201 0.0 0.0 0.00 0.05 0.04 97 1014.2
20260903113959 69 204 0.0 0.0 0.00 0.05 0.04 97 1014.2
20260903113854 69 210 0.0 0.0 0.00 0.05 0.04 97 1014.2
20260903113748 69 206 0.0 0.0 0.00 0.05 0.04 97 1014.2
20260903113643 69 193 0.0 0.0 0.00 0.05 0.04 97 1014.6
20260903113537 69 205 0.0 0.0 0.00 0.05 0.04 97 1014.6
20260903113444 69 210 0.0 0.0 0.00 0.05 0.04 97 1014.6
20260903113325 69 196 0.0 0.0 0.00 0.05 0.04 97 1014.6
20260903113237 69 212 0.0 0.0 0.00 0.05 0.04 97 1014.6
20260903113219 69 211 0.0 0.0 0.00 0.05 0.04 97 1014.6
20260903113113 69 197 0.0 0.0 0.00 0.05 0.04 97 1014.6
20260903113009 69 202 0.0 0.0 0.00 0.05 0.04 97 1014.6
20260903113000 69 204 0.0 0.0 0.00 0.05 0.04 97 1014.6
20260903112956 69 185 0.0 0.0 0.00 0.05 0.04 97 1014.6
20260903112948 69 201 0.0 0.0 0.00 0.05 0.04 97 1014.6
20260903112650 69 204 0.0 0.0 0.00 0.05 0.04 97 1014.6
20260903112545 69 210 0.0 0.0 0.00 0.05 0.04 97 1014.2
20260903112459 69 211 0.0 0.0 0.00 0.05 0.04 97 1014.6
20260903112450 69 214 0.0 0.0 0.00 0.05 0.04 97 1014.6
20260903112440 69 201 0.0 0.0 0.00 0.05 0.04 97 1014.6
20260903112134 69 201 0.0 0.0 0.00 0.05 0.04 97 1014.6
20260903112016 69 201 0.0 0.0 0.00 0.05 0.04 97 1014.6
20260903111910 69 201 0.0 0.0 0.00 0.05 0.04 97 1014.2
20260903111805 69 201 0.0 0.0 0.00 0.05 0.04 97 1014.6
20260903111717 69 201 0.0 0.0 0.00 0.05 0.04 97 1014.6
20260903111659 69 190 0.0 0.0 0.00 0.05 0.04 97 1014.6
20260903111553 69 201 0.0 0.0 0.00 0.05 0.04 97 1014.2
20260903111448 69 201 0.0 0.0 0.00 0.05 0.04 97 1014.2
20260903111440 69 201 0.0 0.0 0.00 0.05 0.04 97 1014.2
20260903111431 69 201 0.0 0.0 0.00 0.05 0.04 97 1014.6
20260903111131 69 200 0.0 0.0 0.00 0.05 0.04 97 1014.6
20260903111024 69 201 0.0 0.0 0.00 0.05 0.04 97 1014.2
20260903110919 69 200 0.0 0.0 0.00 0.05 0.04 97 1014.6
20260903110813 69 193 0.0 0.0 0.00 0.05 0.04 97 1014.2
20260903110708 69 185 0.0 0.0 0.00 0.05 0.04 97 1014.6
20260903110602 69 195 0.0 0.0 0.00 0.05 0.04 97 1014.2
20260903110456 69 203 0.0 0.0 0.00 0.05 0.04 97 1014.2
20260903110351 69 191 0.0 0.0 0.00 0.05 0.04 97 1014.2
20260903110244 69 201 0.0 0.0 0.00 0.05 0.04 97 1014.2
20260903110156 69 205 0.0 0.0 0.00 0.05 0.04 97 1014.2
20260903110139 69 205 0.0 0.0 0.00 0.05 0.04 97 1014.2
20260903110033 69 196 0.0 0.0 0.00 0.05 0.04 97 1014.2
20260903105928 69 195 0.0 0.0 0.00 0.05 0.04 97 1014.2
20260903105822 69 191 0.0 0.0 0.00 0.05 0.04 97 1014.2
20260903105716 69 195 0.0 0.0 0.00 0.05 0.04 97 1014.2
20260903105650 69 195 0.0 0.0 0.00 0.05 0.04 97 1014.2
20260903105611 69 195 0.0 0.0 0.00 0.05 0.04 97 1014.2
20260903105505 69 195 0.0 0.0 0.00 0.05 0.04 97 1014.2
20260903105420 69 196 0.0 0.0 0.00 0.05 0.04 97 1014.2
20260903105412 69 195 0.0 0.0 0.00 0.05 0.04 97 1014.2
20260903105401 69 196 0.0 0.0 0.00 0.05 0.04 97 1014.2
20260903105042 69 196 0.0 0.0 0.00 0.05 0.04 97 1014.2
20260903104937 69 200 0.0 0.0 0.00 0.05 0.04 97 1014.2
20260903104908 69 193 0.0 0.0 0.00 0.05 0.04 97 1014.2
20260903104904 69 201 0.0 0.0 0.00 0.05 0.04 97 1014.2
20260903104855 69 193 0.0 0.0 0.00 0.05 0.04 97 1013.9
20260903104620 69 193 0.0 0.0 0.00 0.05 0.04 97 1014.2
20260903104513 69 214 0.0 0.0 0.00 0.05 0.04 97 1014.2
20260903104408 69 203 0.0 0.0 0.00 0.05 0.04 97 1013.9
20260903104303 69 204 0.0 0.0 0.00 0.05 0.04 97 1013.9
20260903104157 69 204 0.0 0.0 0.00 0.05 0.04 97 1013.9
20260903104130 69 203 0.0 0.0 0.00 0.05 0.04 97 1013.9
20260903104051 69 222 0.0 0.0 0.00 0.05 0.04 97 1013.9
20260903103947 69 226 0.0 0.0 0.00 0.05 0.04 97 1013.9
20260903103903 69 226 0.0 0.0 0.00 0.05 0.04 97 1013.9
20260903103855 69 217 0.0 0.0 0.00 0.05 0.04 97 1013.9
20260903103845 69 216 0.0 0.0 0.00 0.05 0.04 97 1013.9
20260903103524 69 222 0.0 0.0 0.00 0.05 0.04 97 1013.9
20260903103419 69 230 0.0 0.0 0.00 0.05 0.04 97 1013.9
20260903103313 69 196 0.0 0.0 0.00 0.05 0.04 97 1013.9
20260903103206 69 201 0.0 0.0 0.00 0.05 0.04 97 1014.2
20260903103118 69 201 0.0 0.0 0.00 0.05 0.04 97 1013.9
20260903103100 69 201 0.0 0.0 0.00 0.05 0.04 97 1013.9
20260903102954 69 201 0.0 0.0 0.00 0.05 0.04 97 1013.9
20260903102849 69 201 0.0 0.0 0.00 0.05 0.04 97 1013.9
20260903102840 69 201 0.0 0.0 0.00 0.05 0.04 97 1013.5
20260903102832 69 201 0.0 0.0 0.00 0.05 0.04 97 1013.9
20260903102532 69 216 0.0 0.0 0.00 0.05 0.04 97 1014.2
20260903102426 70 188 0.0 0.0 0.00 0.05 0.04 97 1013.9
20260903102359 70 197 0.0 0.0 0.00 0.05 0.04 97 1013.9
20260903102355 70 205 0.0 0.0 0.00 0.05 0.04 97 1013.9
20260903102347 70 206 0.0 0.0 0.00 0.05 0.04 97 1013.9
20260903102323 70 197 0.0 0.0 0.00 0.05 0.04 97 1013.9
20260903102003 70 204 0.0 0.0 0.00 0.05 0.04 97 1014.2
20260903101858 70 196 0.0 0.0 0.00 0.05 0.04 97 1014.2
20260903101752 70 196 0.0 0.0 0.00 0.05 0.04 97 1013.9
20260903101647 70 197 0.0 2.0 0.00 0.05 0.04 97 1014.2
20260903101541 70 203 0.0 2.0 0.00 0.05 0.04 97 1013.9
20260903101435 70 203 0.0 2.0 0.00 0.05 0.04 97 1013.9
20260903101344 70 196 0.0 2.0 0.00 0.05 0.04 97 1013.9
20260903101340 70 196 0.0 2.0 0.00 0.05 0.04 97 1013.9
20260903101331 70 196 0.0 2.0 0.00 0.05 0.04 97 1013.9
20260903101322 70 193 0.0 2.0 0.00 0.05 0.04 97 1013.9
20260903101012 70 191 0.0 2.0 0.00 0.05 0.04 97 1013.9
20260903100906 70 201 0.0 2.0 0.00 0.05 0.04 97 1014.2
20260903100821 70 206 1.0 2.0 0.00 0.05 0.04 97 1013.9
20260903100812 70 209 0.0 2.0 0.00 0.05 0.04 97 1014.2
20260903100802 70 217 1.0 2.0 0.00 0.05 0.04 97 1013.9
20260903100443 70 211 2.0 2.0 0.00 0.05 0.04 97 1014.2
20260903100337 70 219 2.0 2.0 0.00 0.05 0.04 97 1013.9
20260903100308 70 196 0.0 1.0 0.00 0.05 0.04 97 1014.2
20260903100304 70 207 1.0 2.0 0.00 0.05 0.04 97 1013.9
20260903100255 70 196 1.0 1.0 0.00 0.05 0.04 97 1014.2
20260903100020 70 195 1.0 1.0 0.00 0.05 0.04 97 1014.2
20260903095915 70 195 1.0 1.0 0.00 0.05 0.04 97 1013.9
20260903095809 70 193 0.0 1.0 0.00 0.05 0.04 97 1013.9
20260903095704 70 194 1.0 1.0 0.00 0.05 0.04 97 1013.9
20260903095558 70 203 0.0 0.0 0.00 0.05 0.04 97 1013.9
20260903095531 70 204 0.0 0.0 0.00 0.05 0.04 96 1013.9
20260903095451 70 204 0.0 0.0 0.00 0.05 0.04 96 1013.9
20260903095347 70 204 0.0 0.0 0.00 0.05 0.04 96 1014.2
20260903095241 70 203 0.0 0.0 0.00 0.05 0.04 96 1013.9
20260903095134 70 203 0.0 0.0 0.00 0.05 0.04 96 1013.9
20260903095028 70 203 0.0 0.0 0.00 0.05 0.04 96 1013.9
20260903094922 70 203 0.0 0.0 0.00 0.05 0.04 96 1013.5
20260903094817 70 203 0.0 0.0 0.00 0.05 0.04 96 1013.9
20260903094710 70 203 0.0 0.0 0.00 0.05 0.04 96 1013.9
20260903094605 70 203 0.0 0.0 0.00 0.05 0.04 96 1013.9
20260903094517 70 203 0.0 0.0 0.00 0.05 0.04 96 1013.9
20260903094500 70 203 0.0 0.0 0.00 0.05 0.04 96 1013.9
20260903094354 70 204 0.0 0.0 0.00 0.05 0.04 96 1013.9
20260903094249 70 204 0.0 0.0 0.00 0.05 0.04 96 1013.9
20260903094143 70 204 0.0 0.0 0.00 0.05 0.04 96 1013.9
20260903094010 70 204 0.0 0.0 0.00 0.05 0.04 96 1013.5
20260903093931 70 203 0.0 0.0 0.00 0.05 0.04 96 1013.5
20260903093825 70 204 0.0 0.0 0.00 0.05 0.04 96 1013.9
20260903093720 70 204 0.0 0.0 0.00 0.05 0.04 96 1013.5
20260903093614 70 204 0.0 0.0 0.00 0.05 0.04 96 1013.5
20260903093508 70 204 0.0 0.0 0.00 0.05 0.04 96 1013.5
20260903093402 70 204 0.0 0.0 0.00 0.05 0.04 96 1013.5
20260903093256 70 204 0.0 0.0 0.00 0.05 0.04 96 1013.9
20260903093149 70 204 0.0 0.0 0.00 0.05 0.04 96 1013.5
20260903093044 70 205 0.0 0.0 0.00 0.05 0.04 96 1013.5
20260903092955 70 204 0.0 0.0 0.00 0.05 0.04 96 1013.5
20260903092938 70 203 0.0 0.0 0.00 0.05 0.04 96 1013.5
20260903092832 70 203 0.0 0.0 0.00 0.05 0.04 96 1013.5
20260903092726 70 203 0.0 0.0 0.00 0.05 0.04 96 1013.5
20260903092621 70 203 0.0 0.0 0.00 0.05 0.04 96 1013.5
20260903092516 70 203 0.0 0.0 0.00 0.05 0.04 96 1013.5
20260903092449 70 203 0.0 0.0 0.00 0.05 0.04 96 1013.5
20260903092410 70 203 0.0 0.0 0.00 0.05 0.04 96 1013.5
20260903092306 70 203 0.0 1.0 0.00 0.05 0.04 96 1013.5
20260903092158 70 204 0.0 1.0 0.00 0.05 0.04 96 1013.5
20260903092052 70 204 0.0 1.0 0.00 0.05 0.04 96 1013.5
20260903091946 70 208 0.0 1.0 0.00 0.05 0.04 96 1013.5
20260903091840 70 201 0.0 1.0 0.00 0.05 0.04 96 1013.5
20260903091735 70 201 0.0 1.0 0.00 0.05 0.04 96 1013.5
20260903091629 70 200 0.0 1.0 0.00 0.05 0.04 96 1013.5
20260903091524 70 200 0.0 1.0 0.00 0.05 0.04 96 1013.5
20260903091435 70 203 0.0 1.0 0.00 0.05 0.04 96 1013.5
20260903091417 70 207 0.0 1.0 0.00 0.05 0.04 96 1013.5
20260903091312 70 203 0.0 1.0 0.00 0.05 0.04 96 1013.5
20260903091207 70 204 0.0 0.0 0.00 0.05 0.04 96 1013.5
20260903091113 70 204 0.0 0.0 0.00 0.05 0.04 96 1013.5
20260903090955 70 204 0.0 0.0 0.00 0.05 0.04 96 1013.5
20260903090929 70 207 0.0 0.0 0.00 0.05 0.04 96 1013.1
20260903090902 70 208 0.0 0.0 0.00 0.05 0.04 95 1013.1
20260903090744 70 208 0.0 0.0 0.00 0.05 0.04 95 1013.1
20260903090638 70 207 0.0 0.0 0.00 0.05 0.04 95 1013.5
20260903090532 70 207 0.0 0.0 0.00 0.05 0.04 95 1013.5
20260903090439 70 207 0.0 0.0 0.00 0.05 0.04 95 1013.1
20260903090321 70 176 0.0 0.0 0.00 0.05 0.04 95 1013.1
20260903090215 70 187 0.0 0.0 0.00 0.05 0.04 95 1013.5
20260903090109 70 187 0.0 0.0 0.00 0.05 0.04 95 1013.5
20260903090004 70 187 0.0 0.0 0.00 0.05 0.04 95 1013.1
20260903085915 71 187 0.0 0.0 0.00 0.05 0.04 95 1013.1
20260903085857 71 187 0.0 0.0 0.00 0.05 0.04 95 1013.1
20260903085752 71 184 0.0 0.0 0.00 0.05 0.04 95 1013.1
20260903085659 71 226 0.0 0.0 0.00 0.05 0.04 95 1013.5
20260903085540 71 226 0.0 1.0 0.00 0.05 0.04 95 1013.1
20260903085408 71 236 0.0 1.0 0.00 0.05 0.04 95 1013.1
20260903085328 71 236 0.0 1.0 0.00 0.05 0.04 95 1013.1
20260903085224 71 216 0.0 1.0 0.00 0.05 0.04 95 1013.5
20260903085117 71 32 0.0 1.0 0.00 0.05 0.04 95 1013.5
20260903085012 71 32 0.0 1.0 0.00 0.05 0.04 95 1013.1
20260903084918 71 32 0.0 1.0 0.00 0.05 0.04 95 1013.1
20260903084800 71 32 0.0 1.0 0.00 0.05 0.04 95 1013.1
20260903084652 71 39 0.0 1.0 0.00 0.05 0.04 95 1013.5
20260903084547 71 24 0.0 1.0 0.00 0.05 0.04 95 1013.5
20260903084442 71 246 0.0 1.0 0.00 0.05 0.04 95 1013.1
20260903084353 71 283 0.0 1.0 0.00 0.05 0.04 95 1013.1
20260903084336 71 294 1.0 1.0 0.00 0.05 0.04 95 1013.5
20260903084231 71 263 0.0 1.0 0.00 0.05 0.04 95 1013.5
20260903084124 71 263 0.0 1.0 0.00 0.05 0.04 95 1013.5
20260903084019 71 264 0.0 1.0 0.00 0.05 0.04 95 1013.5
20260903083912 71 277 0.0 1.0 0.00 0.05 0.04 95 1013.1
20260903083846 71 269 0.0 1.0 0.00 0.05 0.04 95 1013.1
20260903083807 71 262 0.0 1.0 0.00 0.05 0.04 95 1013.1
20260903083701 71 289 0.0 1.0 0.00 0.05 0.04 95 1013.5
20260903083556 71 247 0.0 1.0 0.00 0.05 0.04 95 1013.5
20260903083450 71 281 0.0 1.0 0.00 0.05 0.04 95 1013.1
20260903083344 71 214 0.0 1.0 0.00 0.05 0.04 95 1013.5
20260903083239 71 168 0.0 1.0 0.00 0.05 0.04 94 1013.1
20260903083133 71 253 0.0 1.0 0.00 0.05 0.04 94 1013.1
20260903083027 71 255 0.0 1.0 0.00 0.05 0.04 94 1013.1
20260903082922 71 254 0.0 1.0 0.00 0.05 0.04 94 1013.1
20260903082833 71 255 0.0 1.0 0.00 0.05 0.04 94 1012.8
20260903082815 71 254 0.0 1.0 0.00 0.05 0.04 94 1012.8
20260903082710 71 119 0.0 1.0 0.00 0.05 0.04 94 1013.1
20260903082604 71 133 0.0 1.0 0.00 0.05 0.04 94 1013.5
20260903082458 71 162 0.0 2.0 0.00 0.05 0.04 94 1013.5
20260903082326 71 173 0.0 2.0 0.00 0.05 0.04 94 1013.1
20260903082247 71 173 0.0 2.0 0.00 0.05 0.04 94 1013.1
20260903082154 71 171 0.0 2.0 0.00 0.05 0.04 94 1012.8
20260903082036 71 212 0.0 2.0 0.00 0.05 0.04 94 1013.1
20260903081930 71 189 0.0 2.0 0.00 0.05 0.04 94 1013.1
20260903081824 71 171 0.0 2.0 0.00 0.05 0.04 94 1012.8
20260903081716 71 187 0.0 2.0 0.00 0.05 0.04 94 1013.1
20260903081612 71 302 0.0 2.0 0.00 0.05 0.04 94 1013.1
20260903081505 71 338 1.0 2.0 0.00 0.05 0.04 94 1013.1
20260903081359 72 200 0.0 2.0 0.00 0.05 0.04 94 1012.8
20260903081310 72 92 1.0 2.0 0.00 0.05 0.04 94 1013.1
20260903081252 72 319 0.0 2.0 0.00 0.05 0.04 94 1013.1
20260903081147 72 138 1.0 2.0 0.00 0.05 0.04 93 1012.8
20260903081042 72 50 1.0 2.0 0.00 0.05 0.04 93 1012.8
20260903080936 72 305 0.0 2.0 0.00 0.05 0.04 93 1013.1
20260903080831 72 260 0.0 3.0 0.00 0.05 0.04 93 1013.1
20260903080804 72 288 2.0 3.0 0.00 0.05 0.04 93 1013.1
20260903080725 72 211 0.0 3.0 0.00 0.05 0.04 93 1013.1
20260903080619 72 223 0.0 3.0 0.00 0.05 0.04 93 1013.1
20260903080513 72 121 0.0 4.0 0.00 0.05 0.04 93 1012.8
20260903080407 72 189 0.0 6.0 0.00 0.05 0.04 93 1013.1
20260903080301 72 239 1.0 6.0 0.00 0.05 0.04 93 1013.1
20260903080156 72 314 1.0 6.0 0.02 0.05 0.04 93 1013.1
20260903080103 72 296 0.0 6.0 0.02 0.05 0.04 93 1012.8
20260903075944 72 288 2.0 6.0 0.02 0.05 0.04 93 1012.8
20260903075839 72 246 1.0 6.0 0.02 0.05 0.04 93 1013.1
20260903075750 72 333 1.0 6.0 0.02 0.05 0.04 94 1013.1
20260903075733 71 212 1.0 6.0 0.02 0.05 0.04 94 1013.1
20260903075627 71 307 1.0 6.0 0.02 0.05 0.04 94 1012.8
20260903075522 71 160 0.0 6.0 0.02 0.05 0.04 94 1013.1